Regional Weather Roundup
Issued by NWS Charleston, WV

Home | Current Version | Previous Version | Text Only | Print | Product List | Glossary Off
Versions: 1 2 3 4 5 6 7 8 9 10 11 12 13 14 15 16 17 18 19 20 21 22 23 24 25 26 27 28 29 30 31 32 33 34 35 36 37 38 39 40 41 42 43 44 45 46 47 48 49 50

000
ASUS41 KRLX 250410
RWRRLX
West Virginia Regional Weather Roundup
National Weather Service Charleston WV
1100 PM EST WED DEC 24 2014

Note: "fair" indicates few or no clouds below 12,000 feet with no
significant weather and/or obstructions to visibility.

WVZ003-250500-
Northern Panhandle of West Virginia

CITY           SKY/WX    TMP DP  RH WIND       PRES   REMARKS
WHEELING       CLOUDY    41  37  86 SW24G36   29.62R
$$

WVZ009-250500-
Northwest West Virginia

CITY           SKY/WX    TMP DP  RH WIND       PRES   REMARKS
PARKERSBURG    CLOUDY    43  37  79 W8        29.73R
$$

WVZ006-250500-
Western West Virginia

CITY           SKY/WX    TMP DP  RH WIND       PRES   REMARKS
HUNTINGTON     CLOUDY    43  36  76 SW7G22    29.76R
$$

WVZ015-250500-
West Central West Virginia

CITY           SKY/WX    TMP DP  RH WIND       PRES   REMARKS
CHARLESTON     LGT RAIN  44  40  85 SW14      29.76R
$$

WVZ022-031-250500-
North Central West Virginia

CITY           SKY/WX    TMP DP  RH WIND       PRES   REMARKS
CLARKSBURG     LGT RAIN  46  41  82 SW15G25   29.67R
MORGANTOWN     LGT RAIN  47  38  71 SW13G25   29.65R
$$

WVZ025-035-042-045-250500-
Southern West Virginia

CITY           SKY/WX    TMP DP  RH WIND       PRES   REMARKS
BECKLEY        LGT RAIN  42  39  89 W9        29.74R
LOGAN          CLOUDY    41  39  93 W8        29.76R
BLUEFIELD      LGT RAIN  42  37  82 W13G25    29.74R
LEWISBURG      CLOUDY    49  42  75 W10       29.71R
$$

WVZ047-250500-
Northern Mountains of West Virginia

CITY           SKY/WX    TMP DP  RH WIND       PRES   REMARKS
ELKINS         CLOUDY    46  41  82 SW10G23   29.69R
$$

WVZ052-250500-
Eastern Panhandle of West Virginia

CITY           SKY/WX    TMP DP  RH WIND       PRES   REMARKS
MARTINSBURG    CLOUDY    46  43  89 W12       29.53R FOG
PETERSBURG     CLOUDY    55  44  66 W23G38    29.59R
$$



USA.gov is the U.S. government's official web portal to all federal, state and local government web resources and services.